DAL648 KMSP-MMUN

Flight info

Callsign DAL648
Flight time 3h 27m
Altitude 35000
Route RST1 ALO WELTS CARIN MCB J35 ZYDCO J35 LEV A770 KEHLI UL209 BETAS VOMAR VOMA1A
Aircraft B739/M-SDE2E3FGHIRWXY/LB1

Departure

Time 2026-04-30 19:30
Airport Minneapolis–Saint Paul International Airport / Wold–Chamberlain Field (KMSP)

Arrival

Time 2026-04-30 22:57
Airport Cancún International Airport (MMUN)
Time Latitude Longitude Altitude Speed Heading
2026-04-30 18:55 44.88420 -93.21561 824 ft 0 kts 198°
2026-04-30 19:17 44.88423 -93.21560 824 ft 3 kts 198°
2026-04-30 19:18 44.88453 -93.21546 824 ft 2 kts 198°
2026-04-30 19:18 44.88475 -93.21513 824 ft 3 kts 293°
2026-04-30 19:18 44.88466 -93.21484 824 ft 1 kts 294°
2026-04-30 19:19 44.88465 -93.21483 824 ft 0 kts 294°
2026-04-30 19:22 44.88500 -93.21591 824 ft 11 kts 295°
2026-04-30 19:22 44.88385 -93.21839 824 ft 10 kts 224°
2026-04-30 19:23 44.88231 -93.21854 824 ft 10 kts 122°
2026-04-30 19:24 44.88152 -93.21671 822 ft 14 kts 122°
2026-04-30 19:24 44.88093 -93.21537 822 ft 18 kts 121°
2026-04-30 19:24 44.87969 -93.21249 824 ft 17 kts 123°
2026-04-30 19:25 44.87801 -93.20859 825 ft 15 kts 121°
2026-04-30 19:26 44.87699 -93.20625 825 ft 13 kts 121°
2026-04-30 19:26 44.87596 -93.20387 822 ft 15 kts 121°
2026-04-30 19:26 44.87542 -93.20262 821 ft 15 kts 121°
2026-04-30 19:27 44.87444 -93.20073 824 ft 9 kts 178°
2026-04-30 19:27 44.87379 -93.20180 826 ft 2 kts 301°
2026-04-30 19:28 44.87469 -93.20388 822 ft 57 kts 302°
2026-04-30 19:29 44.88303 -93.22305 911 ft 154 kts 304°
2026-04-30 19:29 44.88866 -93.23583 1375 ft 163 kts 307°
2026-04-30 19:30 44.90523 -93.28126 2843 ft 199 kts 265°
2026-04-30 19:30 44.88965 -93.31881 3458 ft 239 kts 240°
2026-04-30 19:31 44.86266 -93.34977 4442 ft 273 kts 188°
2026-04-30 19:31 44.84389 -93.34721 5260 ft 278 kts 163°
2026-04-30 19:31 44.80893 -93.32298 6780 ft 286 kts 149°
2026-04-30 19:32 44.79154 -93.30872 7466 ft 290 kts 149°
2026-04-30 19:32 44.77399 -93.29440 8213 ft 294 kts 150°
2026-04-30 19:32 44.75614 -93.28005 8977 ft 297 kts 150°
2026-04-30 19:32 44.73811 -93.26573 9753 ft 299 kts 150°
2026-04-30 19:33 44.71983 -93.25134 10361 ft 307 kts 151°
2026-04-30 19:33 44.70079 -93.23644 10570 ft 328 kts 151°
2026-04-30 19:33 44.68022 -93.22039 10741 ft 349 kts 151°
2026-04-30 19:33 44.65834 -93.20337 10914 ft 369 kts 152°
2026-04-30 19:34 44.63536 -93.18552 11088 ft 387 kts 151°
2026-04-30 19:34 44.61127 -93.16738 11460 ft 397 kts 153°
2026-04-30 19:34 44.56146 -93.13288 12761 ft 401 kts 155°
2026-04-30 19:35 44.53628 -93.11560 13343 ft 405 kts 155°
2026-04-30 19:35 44.51088 -93.09806 13934 ft 408 kts 155°
2026-04-30 19:35 44.48564 -93.08052 14464 ft 411 kts 155°
2026-04-30 19:35 44.45996 -93.06262 14983 ft 415 kts 155°
2026-04-30 19:36 44.43400 -93.04454 15491 ft 418 kts 156°
2026-04-30 19:36 44.40785 -93.02635 16001 ft 422 kts 156°
2026-04-30 19:36 44.35481 -92.98953 16950 ft 429 kts 156°
2026-04-30 19:37 44.32793 -92.97088 17427 ft 433 kts 157°
2026-04-30 19:37 44.30079 -92.95207 17902 ft 437 kts 157°
2026-04-30 19:37 44.27345 -92.93315 18364 ft 440 kts 157°
2026-04-30 19:37 44.24632 -92.91439 18766 ft 443 kts 157°
2026-04-30 19:38 44.21859 -92.89524 19200 ft 446 kts 157°
2026-04-30 19:38 44.19072 -92.87600 19640 ft 448 kts 157°
2026-04-30 19:38 44.16267 -92.85664 20008 ft 452 kts 158°
2026-04-30 19:38 44.13440 -92.83718 20406 ft 455 kts 158°
2026-04-30 19:39 44.10602 -92.81765 20819 ft 457 kts 158°
2026-04-30 19:39 44.07739 -92.79801 21255 ft 460 kts 158°
2026-04-30 19:39 44.04898 -92.77854 21644 ft 463 kts 158°
2026-04-30 19:39 44.02006 -92.75875 22035 ft 466 kts 158°
2026-04-30 19:40 43.99091 -92.73879 22396 ft 468 kts 159°
2026-04-30 19:40 43.96158 -92.71874 22754 ft 471 kts 159°
2026-04-30 19:40 43.93210 -92.69860 23130 ft 474 kts 159°
2026-04-30 19:40 43.90235 -92.67829 23506 ft 477 kts 159°
2026-04-30 19:41 43.87255 -92.65796 23846 ft 479 kts 159°
2026-04-30 19:41 43.84251 -92.63750 24140 ft 482 kts 159°
2026-04-30 19:41 43.81237 -92.61704 24454 ft 484 kts 160°
2026-04-30 19:41 43.78170 -92.59996 24713 ft 480 kts 169°
2026-04-30 19:42 43.74942 -92.58960 25000 ft 473 kts 179°
2026-04-30 19:42 43.71681 -92.58462 25327 ft 473 kts 180°
2026-04-30 19:42 43.68397 -92.57986 25620 ft 475 kts 180°
2026-04-30 19:42 43.65109 -92.57496 25893 ft 477 kts 180°
2026-04-30 19:43 43.61794 -92.56985 26176 ft 479 kts 180°
2026-04-30 19:43 43.58487 -92.56458 26544 ft 479 kts 180°
2026-04-30 19:43 43.55178 -92.55919 26982 ft 477 kts 180°
2026-04-30 19:44 43.48646 -92.54847 27836 ft 476 kts 180°
2026-04-30 19:44 43.45362 -92.54309 28217 ft 476 kts 180°
2026-04-30 19:44 43.42077 -92.53773 28630 ft 475 kts 181°
2026-04-30 19:44 43.38797 -92.53239 29033 ft 474 kts 181°
2026-04-30 19:45 43.35526 -92.52706 29483 ft 472 kts 181°
2026-04-30 19:45 43.32270 -92.52177 29907 ft 472 kts 181°
2026-04-30 19:45 43.29010 -92.51649 30259 ft 471 kts 181°
2026-04-30 19:45 43.25753 -92.51123 30564 ft 471 kts 181°
2026-04-30 19:46 43.22534 -92.50603 30847 ft 472 kts 181°
2026-04-30 19:46 43.19279 -92.50078 31097 ft 472 kts 181°
2026-04-30 19:46 43.16016 -92.49552 31387 ft 472 kts 181°
2026-04-30 19:46 43.12754 -92.49026 31674 ft 472 kts 181°
2026-04-30 19:47 43.09492 -92.48500 31945 ft 472 kts 181°
2026-04-30 19:47 43.07332 -92.48153 32112 ft 473 kts 181°
2026-04-30 19:47 43.02960 -92.47450 32481 ft 472 kts 181°
2026-04-30 19:47 42.99735 -92.46932 32754 ft 472 kts 181°
2026-04-30 19:48 42.96477 -92.46409 32980 ft 473 kts 181°
2026-04-30 19:48 42.93209 -92.45886 33233 ft 473 kts 181°
2026-04-30 19:48 42.89941 -92.45363 33492 ft 473 kts 181°
2026-04-30 19:48 42.86675 -92.44841 33745 ft 473 kts 181°
2026-04-30 19:49 42.83406 -92.44319 33989 ft 473 kts 181°
2026-04-30 19:49 42.76866 -92.43277 34378 ft 473 kts 181°
2026-04-30 19:49 42.73586 -92.42754 34561 ft 474 kts 181°
2026-04-30 19:50 42.70319 -92.42235 34755 ft 474 kts 181°
2026-04-30 19:50 42.67093 -92.41722 34940 ft 473 kts 181°
2026-04-30 19:50 42.63817 -92.41202 35067 ft 474 kts 181°
2026-04-30 19:50 42.60529 -92.40682 35060 ft 476 kts 181°
2026-04-30 19:51 42.53962 -92.39630 35065 ft 474 kts 180°
2026-04-30 19:51 42.47426 -92.38435 35071 ft 473 kts 180°
2026-04-30 19:52 42.40919 -92.37195 35072 ft 472 kts 180°
2026-04-30 19:52 42.34478 -92.35983 35067 ft 470 kts 180°
2026-04-30 19:53 42.27999 -92.34781 35073 ft 470 kts 180°
2026-04-30 19:53 42.21546 -92.33594 35090 ft 471 kts 180°
2026-04-30 19:54 42.15053 -92.32402 35072 ft 472 kts 180°
2026-04-30 19:54 42.08523 -92.31204 35077 ft 474 kts 180°
2026-04-30 19:55 42.02025 -92.30013 35093 ft 476 kts 180°
2026-04-30 19:55 41.95456 -92.28812 35074 ft 477 kts 180°
2026-04-30 19:56 41.88880 -92.27611 35080 ft 477 kts 180°
2026-04-30 19:56 41.82297 -92.26410 35078 ft 477 kts 180°
2026-04-30 19:57 41.75772 -92.25224 35080 ft 477 kts 180°
2026-04-30 19:57 41.69208 -92.24032 35070 ft 475 kts 181°
2026-04-30 19:58 41.62656 -92.22846 35068 ft 474 kts 181°
2026-04-30 19:58 41.56120 -92.21665 35068 ft 473 kts 181°
2026-04-30 19:59 41.49649 -92.20500 35066 ft 472 kts 181°
2026-04-30 20:00 41.39891 -92.18745 35068 ft 471 kts 181°
2026-04-30 20:00 41.33383 -92.17579 35071 ft 472 kts 181°
2026-04-30 20:01 41.23671 -92.15841 35055 ft 472 kts 182°
2026-04-30 20:01 41.17154 -92.14679 35059 ft 473 kts 182°
2026-04-30 20:02 41.07357 -92.12935 35052 ft 474 kts 182°
2026-04-30 20:03 40.97547 -92.11194 35057 ft 474 kts 182°
2026-04-30 20:03 40.91045 -92.10043 35055 ft 475 kts 182°
2026-04-30 20:04 40.84508 -92.08887 35051 ft 474 kts 183°
2026-04-30 20:05 40.74701 -92.07159 35052 ft 474 kts 183°
2026-04-30 20:05 40.64953 -92.05446 35051 ft 473 kts 183°
2026-04-30 20:06 40.58422 -92.04301 35055 ft 473 kts 183°
2026-04-30 20:06 40.51894 -92.03159 35056 ft 473 kts 183°
2026-04-30 20:07 40.45374 -92.02021 35014 ft 473 kts 184°
2026-04-30 20:08 40.35645 -92.00326 35051 ft 472 kts 184°
2026-04-30 20:08 40.29136 -91.99195 35053 ft 472 kts 184°
2026-04-30 20:09 40.22622 -91.98066 35031 ft 472 kts 184°
2026-04-30 20:09 40.12980 -91.96397 35068 ft 471 kts 185°
2026-04-30 20:10 40.03294 -91.94727 35065 ft 470 kts 185°
2026-04-30 20:11 39.93582 -91.93054 35061 ft 468 kts 186°
2026-04-30 20:11 39.87120 -91.91946 35073 ft 468 kts 186°
2026-04-30 20:12 39.77475 -91.90309 35043 ft 468 kts 186°
2026-04-30 20:13 39.71008 -91.89200 35070 ft 469 kts 186°
2026-04-30 20:13 39.64537 -91.88092 35082 ft 470 kts 186°
2026-04-30 20:14 39.58043 -91.86987 35080 ft 471 kts 186°
2026-04-30 20:14 39.51535 -91.85881 35074 ft 472 kts 187°
2026-04-30 20:15 39.45059 -91.84784 35082 ft 473 kts 186°
2026-04-30 20:15 39.38527 -91.83679 35086 ft 474 kts 186°
2026-04-30 20:16 39.31982 -91.82574 35045 ft 475 kts 187°
2026-04-30 20:16 39.25451 -91.81471 35073 ft 474 kts 187°
2026-04-30 20:17 39.18948 -91.80376 35083 ft 474 kts 187°
2026-04-30 20:17 39.12402 -91.79277 35081 ft 474 kts 187°
2026-04-30 20:18 39.05863 -91.78180 35084 ft 473 kts 188°
2026-04-30 20:18 38.99338 -91.77080 35085 ft 474 kts 187°
2026-04-30 20:19 38.92845 -91.75785 35084 ft 476 kts 186°
2026-04-30 20:19 38.86314 -91.74391 35037 ft 476 kts 186°
2026-04-30 20:20 38.79792 -91.73013 35072 ft 474 kts 186°
2026-04-30 20:20 38.73277 -91.71666 35072 ft 474 kts 186°
2026-04-30 20:21 38.66763 -91.70332 35070 ft 474 kts 186°
2026-04-30 20:21 38.60289 -91.69011 35070 ft 473 kts 186°
2026-04-30 20:22 38.53782 -91.67681 35064 ft 474 kts 186°
2026-04-30 20:22 38.47276 -91.66354 35076 ft 474 kts 186°
2026-04-30 20:23 38.40755 -91.65026 35087 ft 474 kts 186°
2026-04-30 20:23 38.34275 -91.63711 35099 ft 474 kts 186°
2026-04-30 20:24 38.27751 -91.62387 35088 ft 475 kts 186°
2026-04-30 20:24 38.21219 -91.61063 35099 ft 475 kts 186°
2026-04-30 20:25 38.11430 -91.59081 35098 ft 473 kts 186°
2026-04-30 20:26 38.01722 -91.57126 35106 ft 473 kts 186°
2026-04-30 20:26 37.91970 -91.55167 35085 ft 473 kts 186°
2026-04-30 20:27 37.78978 -91.52564 35101 ft 472 kts 186°
2026-04-30 20:28 37.66053 -91.49984 35108 ft 472 kts 186°
2026-04-30 20:30 37.49825 -91.46759 35117 ft 473 kts 186°
2026-04-30 20:31 37.30398 -91.42914 35104 ft 472 kts 187°
2026-04-30 20:32 37.14226 -91.39725 35109 ft 471 kts 187°
2026-04-30 20:33 37.04513 -91.37824 35114 ft 472 kts 187°
2026-04-30 20:34 36.94783 -91.35919 35077 ft 471 kts 187°
2026-04-30 20:35 36.85124 -91.34033 35103 ft 470 kts 187°
2026-04-30 20:35 36.75408 -91.32144 35088 ft 471 kts 187°
2026-04-30 20:36 36.68937 -91.30887 35101 ft 471 kts 186°
2026-04-30 20:37 36.59258 -91.29008 35102 ft 472 kts 186°
2026-04-30 20:37 36.52755 -91.27752 35110 ft 473 kts 186°
2026-04-30 20:38 36.46234 -91.26492 35087 ft 474 kts 186°
2026-04-30 20:38 36.39755 -91.25243 35107 ft 476 kts 186°
2026-04-30 20:39 36.29900 -91.23348 35109 ft 478 kts 186°
2026-04-30 20:40 36.20025 -91.21449 35090 ft 477 kts 185°
2026-04-30 20:40 36.13518 -91.20198 35095 ft 476 kts 185°
2026-04-30 20:41 36.03718 -91.18325 35103 ft 474 kts 185°
2026-04-30 20:41 35.97197 -91.17082 35100 ft 473 kts 185°
2026-04-30 20:42 35.90697 -91.15844 35111 ft 472 kts 185°
2026-04-30 20:43 35.81005 -91.14003 35124 ft 471 kts 186°
2026-04-30 20:43 35.74524 -91.12775 35080 ft 471 kts 186°
2026-04-30 20:44 35.64815 -91.10937 35122 ft 470 kts 186°
2026-04-30 20:45 35.51917 -91.08506 35126 ft 471 kts 186°
2026-04-30 20:45 35.45430 -91.07285 35118 ft 472 kts 186°
2026-04-30 20:46 35.32399 -91.04841 35105 ft 475 kts 186°
2026-04-30 20:47 35.22608 -91.03008 35046 ft 478 kts 186°
2026-04-30 20:48 35.12740 -91.01164 35076 ft 480 kts 186°
2026-04-30 20:48 35.06128 -90.99932 35082 ft 481 kts 186°
2026-04-30 20:49 34.99540 -90.98705 35069 ft 483 kts 185°
2026-04-30 20:50 34.89580 -90.96853 35050 ft 483 kts 185°
2026-04-30 20:50 34.82935 -90.95621 35057 ft 483 kts 185°
2026-04-30 20:51 34.76288 -90.94391 35058 ft 483 kts 185°
2026-04-30 20:51 34.66376 -90.92559 35050 ft 482 kts 186°
2026-04-30 20:52 34.59763 -90.91340 35044 ft 481 kts 186°
2026-04-30 20:53 34.49842 -90.89516 35043 ft 481 kts 186°
2026-04-30 20:53 34.43280 -90.88297 35030 ft 480 kts 185°
2026-04-30 20:54 34.33379 -90.86249 35050 ft 482 kts 184°
2026-04-30 20:55 34.23469 -90.84174 35052 ft 482 kts 184°
2026-04-30 20:55 34.16913 -90.82820 35048 ft 481 kts 184°
2026-04-30 20:56 34.07004 -90.80786 35041 ft 482 kts 184°
2026-04-30 20:57 33.97076 -90.78754 35035 ft 483 kts 184°
2026-04-30 20:57 33.90447 -90.77397 35017 ft 482 kts 184°
2026-04-30 20:58 33.80564 -90.75378 35033 ft 483 kts 184°
2026-04-30 20:58 33.73928 -90.74027 35029 ft 484 kts 184°
2026-04-30 20:59 33.63971 -90.72001 35013 ft 483 kts 183°
2026-04-30 21:00 33.50762 -90.69321 35029 ft 483 kts 183°
2026-04-30 21:01 33.40821 -90.67312 35024 ft 483 kts 183°
2026-04-30 21:02 33.30922 -90.65314 35018 ft 483 kts 183°
2026-04-30 21:02 33.24303 -90.63981 35014 ft 483 kts 183°
2026-04-30 21:03 33.17669 -90.62647 35015 ft 483 kts 183°
2026-04-30 21:03 33.11045 -90.61316 35006 ft 482 kts 183°
2026-04-30 21:04 33.04471 -90.59998 34993 ft 482 kts 183°
2026-04-30 21:04 32.94551 -90.58014 35000 ft 482 kts 183°
2026-04-30 21:05 32.87939 -90.56693 34952 ft 482 kts 182°
2026-04-30 21:05 32.81323 -90.55374 34978 ft 482 kts 182°
2026-04-30 21:06 32.74713 -90.54058 34992 ft 482 kts 182°
2026-04-30 21:06 32.68151 -90.52754 34988 ft 482 kts 182°
2026-04-30 21:07 32.61529 -90.51441 34938 ft 483 kts 182°
2026-04-30 21:07 32.54897 -90.50125 34977 ft 484 kts 182°
2026-04-30 21:08 32.48238 -90.48809 34981 ft 486 kts 182°
2026-04-30 21:08 32.41602 -90.47498 34976 ft 487 kts 182°
2026-04-30 21:09 32.34914 -90.46177 34974 ft 488 kts 182°
2026-04-30 21:09 32.28215 -90.44855 34989 ft 488 kts 182°
2026-04-30 21:10 32.21515 -90.43536 34991 ft 488 kts 182°
2026-04-30 21:10 32.14818 -90.42221 34982 ft 488 kts 182°
2026-04-30 21:11 32.08174 -90.40917 34976 ft 487 kts 182°
2026-04-30 21:11 32.01495 -90.39607 34963 ft 485 kts 181°
2026-04-30 21:12 31.94837 -90.38305 34957 ft 485 kts 181°
2026-04-30 21:12 31.88188 -90.37007 34957 ft 484 kts 181°
2026-04-30 21:13 31.81583 -90.35720 34952 ft 484 kts 182°
2026-04-30 21:13 31.74938 -90.34426 34952 ft 483 kts 181°
2026-04-30 21:14 31.68311 -90.33137 34955 ft 482 kts 181°
2026-04-30 21:14 31.61693 -90.31851 34955 ft 482 kts 181°
2026-04-30 21:15 31.55125 -90.30578 34953 ft 481 kts 181°
2026-04-30 21:15 31.48524 -90.29300 34946 ft 480 kts 181°
2026-04-30 21:16 31.41936 -90.28027 34949 ft 480 kts 181°
2026-04-30 21:16 31.35354 -90.26756 34953 ft 480 kts 181°
2026-04-30 21:17 31.28810 -90.25572 34947 ft 475 kts 185°
2026-04-30 21:17 31.22261 -90.25049 34937 ft 470 kts 186°
2026-04-30 21:18 31.15736 -90.24670 34948 ft 470 kts 186°
2026-04-30 21:18 31.09192 -90.24223 34945 ft 471 kts 186°
2026-04-30 21:19 31.02682 -90.23737 34952 ft 471 kts 185°
2026-04-30 21:19 30.96139 -90.23245 34936 ft 472 kts 185°
2026-04-30 21:20 30.89602 -90.22759 34930 ft 470 kts 184°
2026-04-30 21:20 30.83090 -90.22283 34933 ft 468 kts 185°
2026-04-30 21:21 30.76604 -90.21818 34932 ft 467 kts 185°
2026-04-30 21:22 30.66936 -90.21124 34930 ft 465 kts 185°
2026-04-30 21:23 30.54022 -90.20196 34925 ft 464 kts 185°
2026-04-30 21:23 30.44392 -90.19505 34928 ft 464 kts 185°
2026-04-30 21:24 30.37941 -90.19038 34902 ft 465 kts 183°
2026-04-30 21:24 30.31495 -90.18570 34915 ft 465 kts 183°
2026-04-30 21:25 30.21818 -90.17868 34924 ft 465 kts 183°
2026-04-30 21:26 30.12163 -90.17171 34927 ft 466 kts 183°
2026-04-30 21:27 30.02465 -90.16471 34898 ft 466 kts 183°
2026-04-30 21:27 29.95987 -90.16005 34910 ft 467 kts 183°
2026-04-30 21:28 29.86292 -90.15308 34910 ft 468 kts 183°
2026-04-30 21:29 29.76531 -90.14608 34910 ft 469 kts 184°
2026-04-30 21:30 29.60258 -90.13443 34920 ft 470 kts 184°
2026-04-30 21:31 29.43911 -90.12277 34908 ft 471 kts 184°
2026-04-30 21:32 29.34094 -90.11578 34910 ft 472 kts 184°
2026-04-30 21:32 29.27585 -90.11116 34913 ft 472 kts 184°
2026-04-30 21:33 29.17765 -90.10419 34905 ft 471 kts 184°
2026-04-30 21:34 29.11223 -90.10019 34910 ft 470 kts 185°
2026-04-30 21:34 29.01439 -90.09500 34913 ft 469 kts 185°
2026-04-30 21:35 28.94959 -90.09147 34882 ft 469 kts 185°
2026-04-30 21:35 28.88448 -90.08786 34905 ft 468 kts 185°
2026-04-30 21:36 28.81938 -90.08425 34912 ft 468 kts 185°
2026-04-30 21:37 28.68958 -90.07708 34913 ft 469 kts 185°
2026-04-30 21:37 28.62460 -90.07349 34905 ft 469 kts 185°
2026-04-30 21:38 28.55941 -90.06989 34913 ft 469 kts 185°
2026-04-30 21:38 28.49414 -90.06630 34912 ft 470 kts 185°
2026-04-30 21:39 28.42928 -90.06274 34911 ft 470 kts 185°
2026-04-30 21:39 28.36384 -90.05914 34887 ft 471 kts 185°
2026-04-30 21:40 28.29837 -90.05554 34909 ft 471 kts 185°
2026-04-30 21:40 28.23293 -90.05194 34919 ft 471 kts 185°
2026-04-30 21:41 28.16781 -90.04813 34918 ft 472 kts 184°
2026-04-30 21:41 28.10213 -90.04422 34919 ft 473 kts 184°
2026-04-30 21:42 28.03649 -90.04033 34906 ft 473 kts 184°
2026-04-30 21:42 27.97080 -90.03647 34921 ft 472 kts 184°
2026-04-30 21:43 27.91623 -90.03327 34913 ft 472 kts 184°
2026-04-30 21:43 27.83992 -90.02880 34925 ft 472 kts 184°
2026-04-30 21:44 27.77429 -90.02496 34915 ft 472 kts 184°
2026-04-30 21:44 27.70870 -90.02113 34916 ft 472 kts 184°
2026-04-30 21:45 27.64310 -90.01730 34916 ft 472 kts 184°
2026-04-30 21:45 27.57807 -90.01351 34916 ft 471 kts 184°
2026-04-30 21:46 27.51254 -90.00970 34917 ft 471 kts 184°
2026-04-30 21:46 27.44706 -90.00590 34906 ft 471 kts 183°
2026-04-30 21:47 27.38159 -90.00210 34916 ft 471 kts 183°
2026-04-30 21:47 27.31651 -89.99832 34926 ft 472 kts 183°
2026-04-30 21:48 27.25099 -89.99453 34924 ft 472 kts 183°
2026-04-30 21:48 27.18529 -89.99073 34922 ft 473 kts 183°
2026-04-30 21:49 27.11964 -89.98693 34910 ft 472 kts 183°
2026-04-30 21:49 27.05469 -89.98317 34915 ft 470 kts 183°
2026-04-30 21:50 26.98937 -89.97940 34921 ft 469 kts 183°
2026-04-30 21:50 26.92419 -89.97565 34920 ft 469 kts 183°
2026-04-30 21:51 26.85912 -89.97191 34906 ft 468 kts 184°
2026-04-30 21:51 26.79420 -89.96818 34918 ft 467 kts 184°
2026-04-30 21:52 26.72980 -89.96448 34915 ft 466 kts 184°
2026-04-30 21:52 26.66503 -89.96077 34915 ft 466 kts 184°
2026-04-30 21:53 26.60022 -89.95706 34919 ft 466 kts 184°
2026-04-30 21:53 26.53548 -89.95336 34902 ft 466 kts 183°
2026-04-30 21:54 26.47114 -89.94969 34918 ft 466 kts 183°
2026-04-30 21:54 26.40627 -89.94598 34917 ft 467 kts 183°
2026-04-30 21:55 26.34140 -89.94229 34917 ft 467 kts 183°
2026-04-30 21:55 26.27634 -89.93864 34917 ft 468 kts 183°
2026-04-30 21:56 26.21172 -89.93505 34909 ft 468 kts 183°
2026-04-30 21:56 26.14656 -89.93141 34907 ft 469 kts 183°
2026-04-30 21:57 26.08140 -89.92778 34915 ft 469 kts 183°
2026-04-30 21:57 26.01613 -89.92414 34915 ft 469 kts 183°
2026-04-30 21:58 25.95136 -89.92053 34912 ft 469 kts 183°
2026-04-30 21:58 25.88618 -89.91691 34911 ft 469 kts 182°
2026-04-30 21:59 25.82102 -89.91329 34912 ft 469 kts 182°
2026-04-30 22:00 25.73437 -89.90848 34909 ft 469 kts 182°
2026-04-30 22:00 25.62608 -89.90249 34888 ft 468 kts 182°
2026-04-30 22:01 25.56100 -89.89889 34902 ft 468 kts 182°
2026-04-30 22:01 25.50693 -89.89591 34910 ft 469 kts 182°
2026-04-30 22:02 25.44171 -89.89231 34908 ft 469 kts 182°
2026-04-30 22:02 25.36585 -89.88813 34906 ft 470 kts 182°
2026-04-30 22:03 25.31153 -89.88514 34895 ft 471 kts 182°
2026-04-30 22:03 25.24606 -89.88154 34911 ft 471 kts 182°
2026-04-30 22:04 25.18051 -89.87794 34906 ft 472 kts 182°
2026-04-30 22:05 25.08188 -89.87253 34906 ft 474 kts 181°
2026-04-30 22:05 25.01640 -89.86894 34910 ft 475 kts 181°
2026-04-30 22:06 24.95041 -89.86532 34899 ft 475 kts 181°
2026-04-30 22:06 24.85113 -89.85990 34904 ft 477 kts 181°
2026-04-30 22:07 24.78476 -89.85627 34902 ft 478 kts 181°
2026-04-30 22:07 24.71880 -89.85267 34901 ft 478 kts 181°
2026-04-30 22:08 24.65232 -89.84905 34898 ft 479 kts 181°
2026-04-30 22:08 24.58576 -89.84543 34898 ft 478 kts 181°
2026-04-30 22:09 24.51934 -89.84181 34900 ft 478 kts 181°
2026-04-30 22:09 24.45336 -89.83828 34901 ft 478 kts 181°
2026-04-30 22:10 24.38693 -89.83490 34901 ft 477 kts 181°
2026-04-30 22:10 24.32060 -89.83156 34893 ft 478 kts 181°
2026-04-30 22:11 24.22081 -89.82651 34902 ft 479 kts 181°
2026-04-30 22:12 24.15459 -89.82314 34898 ft 480 kts 181°
2026-04-30 22:12 24.08777 -89.81975 34897 ft 481 kts 181°
2026-04-30 22:13 24.02074 -89.81635 34885 ft 483 kts 181°
2026-04-30 22:13 23.95355 -89.81294 34897 ft 484 kts 181°
2026-04-30 22:14 23.88665 -89.80956 34896 ft 485 kts 181°
2026-04-30 22:14 23.81907 -89.80614 34891 ft 486 kts 181°
2026-04-30 22:15 23.75145 -89.80272 34893 ft 487 kts 181°
2026-04-30 22:15 23.68409 -89.79919 34890 ft 488 kts 180°
2026-04-30 22:16 23.61631 -89.79557 34892 ft 488 kts 180°
2026-04-30 22:17 23.48055 -89.78837 34886 ft 488 kts 180°
2026-04-30 22:17 23.37916 -89.78302 34882 ft 488 kts 180°
2026-04-30 22:18 23.27733 -89.77765 34889 ft 489 kts 180°
2026-04-30 22:19 23.17542 -89.77228 34886 ft 489 kts 180°
2026-04-30 22:20 23.07385 -89.76695 34872 ft 490 kts 180°
2026-04-30 22:20 22.97168 -89.76158 34876 ft 490 kts 180°
2026-04-30 22:21 22.90354 -89.75801 34874 ft 491 kts 180°
2026-04-30 22:21 22.83571 -89.75446 34874 ft 491 kts 180°
2026-04-30 22:22 22.76736 -89.75088 34868 ft 492 kts 180°
2026-04-30 22:22 22.73339 -89.74646 34847 ft 496 kts 165°
2026-04-30 22:22 22.70188 -89.73135 34888 ft 497 kts 147°
2026-04-30 22:23 22.67534 -89.70746 34877 ft 498 kts 132°
2026-04-30 22:23 22.65472 -89.67748 34865 ft 497 kts 116°
2026-04-30 22:23 22.63145 -89.60760 34869 ft 495 kts 105°
2026-04-30 22:24 22.61171 -89.53670 34875 ft 496 kts 105°
2026-04-30 22:24 22.59140 -89.46523 34869 ft 497 kts 105°
2026-04-30 22:25 22.57050 -89.39384 34868 ft 498 kts 106°
2026-04-30 22:25 22.54949 -89.32288 34870 ft 499 kts 106°
2026-04-30 22:26 22.51768 -89.21574 34878 ft 498 kts 106°
2026-04-30 22:27 22.49651 -89.14446 34870 ft 498 kts 106°
2026-04-30 22:27 22.46487 -89.03817 34874 ft 496 kts 106°
2026-04-30 22:28 22.43313 -88.93180 34868 ft 495 kts 106°
2026-04-30 22:29 22.39098 -88.79097 34873 ft 493 kts 106°
2026-04-30 22:31 22.31650 -88.54327 33059 ft 501 kts 107°
2026-04-30 22:32 22.28410 -88.43604 30344 ft 502 kts 107°
2026-04-30 22:32 22.26231 -88.36408 28170 ft 505 kts 107°
2026-04-30 22:33 22.22934 -88.25543 25109 ft 506 kts 108°
2026-04-30 22:33 22.20768 -88.18420 23492 ft 500 kts 108°
2026-04-30 22:34 22.17564 -88.07906 21201 ft 480 kts 107°
2026-04-30 22:35 22.15546 -88.01297 20716 ft 448 kts 107°
2026-04-30 22:36 22.09612 -87.90646 19228 ft 416 kts 137°
2026-04-30 22:36 22.07458 -87.88574 18722 ft 413 kts 136°
2026-04-30 22:37 22.01153 -87.82395 17187 ft 402 kts 136°
2026-04-30 22:37 21.99102 -87.80369 16702 ft 398 kts 135°
2026-04-30 22:37 21.95069 -87.76382 15733 ft 389 kts 136°
2026-04-30 22:38 21.91144 -87.72508 14771 ft 382 kts 134°
2026-04-30 22:38 21.87259 -87.68678 13842 ft 375 kts 135°
2026-04-30 22:39 21.85342 -87.66792 13393 ft 371 kts 135°
2026-04-30 22:39 21.79905 -87.61445 12686 ft 343 kts 135°
2026-04-30 22:40 21.74694 -87.56319 11437 ft 335 kts 135°
2026-04-30 22:41 21.69593 -87.51305 10226 ft 329 kts 136°
2026-04-30 22:41 21.66265 -87.48038 9621 ft 323 kts 136°
2026-04-30 22:42 21.59566 -87.41990 8152 ft 299 kts 141°
2026-04-30 22:43 21.56394 -87.39308 7481 ft 282 kts 142°
2026-04-30 22:43 21.53398 -87.36756 6835 ft 268 kts 142°
2026-04-30 22:44 21.50557 -87.34327 6224 ft 257 kts 144°
2026-04-30 22:45 21.45311 -87.29842 5548 ft 231 kts 143°
2026-04-30 22:45 21.42785 -87.27682 5026 ft 229 kts 144°
2026-04-30 22:46 21.40336 -87.25592 4429 ft 226 kts 144°
2026-04-30 22:47 21.35153 -87.22019 3397 ft 222 kts 154°
2026-04-30 22:47 21.32393 -87.20556 3045 ft 221 kts 153°
2026-04-30 22:48 21.29645 -87.19076 3023 ft 220 kts 152°
2026-04-30 22:49 21.25576 -87.16875 3012 ft 220 kts 152°
2026-04-30 22:49 21.21808 -87.14264 3017 ft 207 kts 121°
2026-04-30 22:50 21.18940 -87.09733 3035 ft 174 kts 125°
2026-04-30 22:51 21.17591 -87.07591 3024 ft 176 kts 124°
2026-04-30 22:51 21.16214 -87.05385 3024 ft 176 kts 125°
2026-04-30 22:52 21.15541 -87.04306 3027 ft 172 kts 124°
2026-04-30 22:52 21.14210 -87.02170 2961 ft 171 kts 125°
2026-04-30 22:53 21.12992 -87.00215 2646 ft 149 kts 124°
2026-04-30 22:53 21.11821 -86.98335 2221 ft 152 kts 124°
2026-04-30 22:53 21.11239 -86.97401 2037 ft 150 kts 124°
2026-04-30 22:54 21.10072 -86.95528 1659 ft 151 kts 124°
2026-04-30 22:55 21.08316 -86.92706 1027 ft 154 kts 124°
2026-04-30 22:55 21.07140 -86.90817 637 ft 150 kts 126°
2026-04-30 22:56 21.05994 -86.88964 278 ft 149 kts 124°
2026-04-30 22:56 21.04476 -86.86543 31 ft 91 kts 124°
2026-04-30 22:57 21.04082 -86.85935 28 ft 16 kts 152°
2026-04-30 22:57 21.03934 -86.85992 27 ft 14 kts 289°
2026-04-30 22:58 21.04033 -86.86179 43 ft 13 kts 290°
2026-04-30 22:59 21.03862 -86.86340 50 ft 14 kts 213°
2026-04-30 22:59 21.03537 -86.86569 28 ft 19 kts 214°